Terminal Aerodrome Forecast
Issued by NWS Cleveland, OH

Home | Current Version | Previous Version | Text Only | Print | Product List | Glossary Off
Versions: 1 2 3 4 5 6 7 8 9 10 11 12 13 14 15 16 17 18 19

166
FTUS41 KCLE 200536
TAFCAK
TAF
KCAK 200536Z 2006/2106 20005KT 6SM HZ OVC025
      TEMPO 2007/2009 5SM BR SCT025
     FM200900 16005KT 6SM BR SCT025 BKN180
      TEMPO 2009/2012 4SM BR
     FM201500 17008KT P6SM BKN050
     FM202100 18008KT 4SM SHRA OVC030
     FM210100 VRB04KT 5SM -SHRA OVC008=

USA.gov is the U.S. government's official web portal to all federal, state and local government web resources and services.